星链-35247(STARLINK-35247)

导读

STARLINK-35247是美国SpaceX星链星座的一员,于2025年9月18日发射升空。星链项目旨在构建全球卫星互联网星座,为全球范围用户提供低延迟宽带网络服务,该卫星加入后进一步扩大了星链星座的规模,增强星座的覆盖能力与服务稳定性,推进了SpaceX全球卫星互联网络的部署进程。

Basic Information
目录编号:
65622
目录名称:
STARLINK-35247
国际标识:
2025-210A
轨道中心:
EARTH
卫星名称:
星链-35247
卫星全名:
星链-35247(STARLINK-35247)
卫星状态:
在轨 (已飞行351 天)
发射日期:
2025-09-18 UTC
国别 :
美国 (US)
星等 :
--
Orbit Information
数据来源 国际轨道数据
星历时间: 2026-09-03T22:32:19+0800
1天前
查看轨道信息
半长轴: 6840.81km
偏心率: 0.0000489
轨道倾角: 53.161°
近地点辐角 73.563°
升交点赤经 200.484°
平近点角 286.542°
近地点: 462.338km
远地点: 463.008km
周期: 93.847分钟
每日圈数: 15.344102
Detailed Information
固有亮度:
5
最大亮度:
2.5
卫星平台:
Starlink V1.0
覆盖范围:
全球
运营商:
太空探索技术公司
运营商所在国:
美国
制造商(研发单位):
太空探索技术公司
制造商所在国:
美国
使用方式:
暂无
Satellite Introduction
Starlink 计划是 SpaceX 推出的全球卫星互联网项目,通过发射低轨道卫星,为全球尤其是偏远地区提供高速、低延迟的互联网服务。自 2019 年起,Starlink 已部署数千颗卫星,旨在缩小全球数字鸿沟,推动互联网普及。该项目还为军事、航空等行业提供通信支持,带来广泛经济效益。
2D Orbit Map
3D Orbit Map
Orbit Altitude Analysis Chart
Orbit Inclination Analysis Chart
Orbit Comprehensive Analysis Chart
View Comprehensive Chart
Conjunction Data List
Event ID Objects TCA Miss Dist (km) Collision Risk Probability Collision Risk Index (CRI) Action
CDM_260827-200206-521106-562221
2026-08-27T
20:02:51+0000
1.979 km
极远距离
2.569347E-6 低风险 0.43
CDM_260901-013705-256006-562222
2026-09-01T
01:37:49+0000
2.749 km
极远距离
1.338056E-6 低风险 0.38